Content
SEND FEEDBACK

Daily
Averages
Monthly
Summary
Philippines

QUEZON CITY, PHILIPPINES


Home > Asia > Philippines
Elevation: 46 meters     Latitude: 14 39N     Longitude: 121 03E

WEATHER
 
SELECT A DAY
Number of Records: 178,162;   Date Range: 7/1/96 - 11/26/14
 
SHARE

PRINT THIS DATA

[ ← Previous Day ]
WEATHER ALMANAC - 20 APRIL, 2013
[ Next Day → ]
[ °F ]   °C
Weather ElementAverageHighLow
Temperature31.3 °C36 °C (2:00 pm)26.1 °C (2:00 pm)
Dewpoint23.6 °C25.6 °C (2:00 am)21 °C (10:00 am)
Humidity62.7 %79 % (1:00 am)38 % (11:00 am)
Barometer1009.8 hPa1012.5 hPa (11:00 pm)1007.1 hPa (3:00 pm)
Wind Speed8.2 km/h14.8 km/h (1:00 pm)
Weather ElementAverage
Visibility9.8 km
Wind DirectionESE (119.3 °)

Weather ElementTotal
Precipitation---
Cooling Degree Days12.7 (Base 18.3)
Growing Degree Days21.1 (Base 10)
Averaged from 31 records on 20 April, 2013
WEATHER CONDITIONS BREAKOUT
WIND DIRECTION BREAKOUT
WEATHER BY HOUR - 20 APRIL, 2013
[ °F ]   °C
Local TimeTemperatureDewpointHumidityBarometerVisibilityWind DirectionWind SpeedGust SpeedPrecipitationEventsConditions
1:00 AM29 °C25 °C79 %1010.2 hPa10 kmSSW (200°)7.4 km/hScattered Clouds
2:00 AM28.9 °C25.6 °C76 %1010.2 hPa9.7 kmSouth (190°)3.5 km/hHaze
2:00 AM29 °C25 °C79 %1009.1 hPa10 kmVariable5.6 km/hPartly Cloudy
3:00 AM29 °C25 °C79 %1009.1 hPa10 kmVariable3.7 km/hPartly Cloudy
4:00 AM29 °C24 °C74 %1009.1 hPa10 kmVariable3.7 km/hPartly Cloudy
5:00 AM28.3 °C23.9 °C70 %1009.5 hPa9.7 kmCalmHaze
5:00 AM28 °C24 °C79 %1009.1 hPa10 kmVariable1.9 km/hPartly Cloudy
6:00 AM28 °C23 °C74 %1010.2 hPa9 kmVariable1.9 km/hPartly Cloudy
7:00 AM30 °C23 °C66 %1010.2 hPa10 kmSE (130°)1.9 km/hScattered Clouds
8:00 AM30.6 °C23.3 °C58 %1011.9 hPa9.7 kmESE (120°)7.2 km/hHaze
8:00 AM31 °C23 °C62 %1011.2 hPa10 kmESE (120°)5.6 km/hPartly Cloudy
9:00 AM32 °C23 °C59 %1011.2 hPa10 kmESE (110°)7.4 km/hPartly Cloudy
10:00 AM33 °C21 °C49 %1011.2 hPa10 kmESE (110°)11.1 km/hPartly Cloudy
11:00 AM33.9 °C21.1 °C38 %1010.8 hPa9.7 kmSE (130°)7.2 km/hPartly Cloudy
11:00 AM34 °C21 °C46 %1010.2 hPa10 kmSE (130°)9.3 km/hScattered Clouds
12:00 PM34 °C21 °C46 %1010.2 hPa10 kmSE (140°)13 km/hScattered Clouds
1:00 PM35 °C22 °C47 %1009.1 hPa10 kmSSE (150°)14.8 km/hScattered Clouds
2:00 PM26.1 °C22.2 °C73 %1008.8 hPa9.7 kmSE (140°)14.3 km/hScattered Clouds
2:00 PM36 °C22 °C44 %1008.1 hPa10 kmSE (140°)13 km/hScattered Clouds
3:00 PM36 °C23 °C47 %1007.1 hPa10 kmVariable13 km/hMostly Cloudy
4:00 PM35 °C23 °C49 %1007.1 hPa10 kmESE (120°)11.1 km/hMostly Cloudy
5:00 PM32.8 °C25 °C56 %1008.1 hPa9.7 kmWSW (250°)14.3 km/hHaze
5:00 PM33 °C25 °C63 %1008.1 hPa10 kmWSW (250°)14.8 km/hMostly Cloudy
6:00 PM33 °C24 °C59 %1009.1 hPa10 kmSSW (210°)11.1 km/hMostly Cloudy
7:00 PM32 °C23 °C59 %1009.1 hPa10 kmSW (220°)7.4 km/hScattered Clouds
8:00 PM31.1 °C25 °C64 %1010.5 hPa9.7 kmSSE (160°)10.8 km/hHaze
8:00 PM31 °C25 °C70 %1010.2 hPa10 kmVariable9.3 km/hPartly Cloudy
9:00 PM31 °C25 °C70 %1011.2 hPa10 kmSSE (160°)9.3 km/hPartly Cloudy
10:00 PM31 °C25 °C70 %1012.2 hPa10 kmVariable5.6 km/hPartly Cloudy
11:00 PM30.6 °C25 °C64 %1012.5 hPa9.7 kmSSW (200°)7.2 km/hHaze
11:00 PM30 °C25 °C74 %1012.2 hPa10 kmSSW (200°)7.4 km/hScattered Clouds
Hourly data recorded from RPLL, located 0 kilometers away from Quezon City, Philippines







STORIES FROM OUR PARTNERS